Date String (YYYY-MM-DD hh:mm:ss) UTC,Instrument flags,absolute air pressure of the measurement (hPa),sample flow rate (lpm),inlet stack bypass flow (lpm),air temperature of the measurement (°C),ambient temperature measured by the external sensor (°C),aerosol sample conditioner tube jacket temperature (°C),OPC LED temperature (°C),internal box temperature (°C),relative humidity of the measurement (%),span deviation,mass concentration of particles derived from Lorenz-Mie calculation of OPC scattering (μg/m³),mass concentration of particles derived from Lorenz-Mie calculation of OPC scattering (μg/m³),mass concentration of particles derived from Lorenz-Mie calculation of OPC scattering (μg/m³)
DateTimeUTC,F1_M11,P_M11,Q1_M11,Q2_M11,T1_M11,T2_M11,T3_M11,T4_M11,T5_M11,U1_M11,ZSPAN_M11,X0_M11,X2_M11,X1_M11
2023-07-24 12:00:00,SystemResetWarning,0835.3,5.00,000.00,029.3,026.7,000.0,037.9,030.8,18.8,0000.0,0009.13,0003.58,0003.24
2023-07-24 12:01:00,SystemResetWarning,0835.4,5.00,000.00,029.3,027.0,000.0,037.9,030.8,19.0,0000.0,0009.10,0003.57,0003.23
2023-07-24 12:02:00,SystemResetWarning,0835.3,5.01,000.00,029.3,027.3,000.0,037.9,030.9,18.9,0000.0,0008.83,0003.57,0003.24
2023-07-24 12:03:00,SystemResetWarning,0835.4,5.01,000.00,029.4,027.5,000.0,037.9,030.9,18.7,0000.0,0008.44,0003.57,0003.24
2023-07-24 12:04:00,SystemResetWarning,0835.4,4.99,000.00,029.4,027.7,000.0,037.9,031.0,18.5,0000.0,0007.34,0003.57,0003.24
2023-07-24 12:05:00,SystemResetWarning,0834.8,4.99,000.00,029.4,027.9,000.0,037.9,031.0,18.2,0000.0,0007.08,0003.59,0003.23
2023-07-24 12:06:00,SystemResetWarning,0834.9,5.01,000.00,029.4,028.0,000.0,037.9,031.0,18.6,0000.0,0007.09,0003.59,0003.23
2023-07-24 12:07:00,SystemResetWarning,0835.0,5.01,000.00,029.4,028.1,000.0,037.9,031.1,18.5,0000.0,0007.27,0003.59,0003.23
2023-07-24 12:08:00,SystemResetWarning,0835.0,5.00,000.00,029.5,028.2,000.0,037.9,031.1,18.6,0000.0,0006.38,0003.58,0003.22
2023-07-24 12:09:00,SystemResetWarning,0835.0,5.00,000.00,029.5,028.2,000.0,037.9,031.2,18.8,0000.0,0006.35,0003.59,0003.22
2023-07-24 12:10:00,SystemResetWarning,0835.0,5.00,000.00,029.5,028.3,000.0,038.0,031.2,18.6,0000.0,0005.74,0003.58,0003.22
2023-07-24 12:11:00,SystemResetWarning,0835.0,4.99,000.00,029.6,028.4,000.0,038.0,031.2,18.4,0000.0,0005.83,0003.60,0003.22
2023-07-24 12:12:00,SystemResetWarning,0835.0,4.99,000.00,029.6,028.4,000.0,038.0,031.3,18.3,0000.0,0005.90,0003.61,0003.23
2023-07-24 12:13:00,SystemResetWarning,0835.0,5.00,000.00,029.6,028.5,000.0,038.0,031.3,18.3,0000.0,0005.91,0003.62,0003.22
2023-07-24 12:14:00,SystemResetWarning,0835.0,5.00,000.00,029.7,028.5,000.0,038.0,031.3,18.3,0000.0,0005.86,0003.62,0003.22
2023-07-24 12:15:00,SystemResetWarning,0835.0,5.00,000.00,029.7,028.4,000.0,038.0,031.3,18.4,0000.0,0005.91,0003.62,0003.22
2023-07-24 12:16:00,SystemResetWarning,0835.0,4.99,000.00,029.7,026.6,000.0,037.9,031.2,18.5,0000.0,0005.93,0003.61,0003.23
2023-07-24 12:17:00,SystemResetWarning,0835.0,5.01,000.00,029.6,025.6,000.0,037.8,031.0,18.8,0000.0,0006.06,0003.62,0003.23
2023-07-24 12:18:00,SystemResetWarning,0835.0,5.01,000.00,029.5,025.7,000.0,037.8,030.8,18.9,0000.0,0006.12,0003.61,0003.23
2023-07-24 12:19:00,SystemResetWarning,0835.1,5.00,000.00,029.4,026.0,000.0,037.9,030.7,18.8,0000.0,0006.17,0003.58,0003.23
2023-07-24 12:20:00,SystemResetWarning,0835.1,4.99,000.00,029.4,026.4,000.0,037.9,030.8,18.7,0000.0,0005.91,0003.54,0003.22
2023-07-24 12:21:00,SystemResetWarning,0835.1,5.00,000.00,029.4,026.7,000.0,037.9,030.8,18.6,0000.0,0005.93,0003.56,0003.21
2023-07-24 12:22:00,SystemResetWarning,0835.1,5.01,000.00,029.4,027.1,000.0,037.9,030.9,18.6,0000.0,0005.91,0003.56,0003.21
2023-07-24 12:23:00,SystemResetWarning,0835.1,4.99,000.00,029.4,027.3,000.0,037.9,030.9,18.6,0000.0,0005.94,0003.54,0003.20
2023-07-24 12:24:00,SystemResetWarning,0835.1,4.99,000.00,029.4,027.5,000.0,037.9,031.0,19.4,0000.0,0005.91,0003.52,0003.20
2023-07-24 12:25:00,SystemResetWarning,0835.2,5.00,000.00,029.4,027.7,000.0,037.9,031.0,19.2,0000.0,0005.91,0003.50,0003.19
2023-07-24 12:26:00,SystemResetWarning,0835.2,5.00,000.00,029.4,027.9,000.0,037.9,031.0,18.9,0000.0,0005.81,0003.47,0003.18
2023-07-24 12:27:00,SystemResetWarning,0835.2,5.01,000.00,029.5,028.0,000.0,037.9,031.1,18.9,0000.0,0005.80,0003.47,0003.17
2023-07-24 12:28:00,SystemResetWarning,0835.2,5.00,000.00,029.5,028.1,000.0,037.9,031.1,18.7,0000.0,0005.85,0003.46,0003.16
2023-07-24 12:29:00,SystemResetWarning,0835.2,5.01,000.00,029.5,028.2,000.0,038.0,031.2,18.4,0000.0,0005.71,0003.48,0003.15
2023-07-24 12:30:00,SystemResetWarning,0835.2,5.00,000.00,029.5,028.3,000.0,038.0,031.2,18.4,0000.0,0005.40,0003.48,0003.15
2023-07-24 12:31:00,SystemResetWarning,0835.3,4.99,000.00,029.6,028.3,000.0,038.0,031.2,18.5,0000.0,0005.93,0003.51,0003.16
2023-07-24 12:32:00,SystemResetWarning,0835.3,4.99,000.00,029.6,028.4,000.0,038.0,031.3,18.6,0000.0,0006.29,0003.52,0003.16
2023-07-24 12:33:00,SystemResetWarning,0835.3,5.01,000.00,029.6,028.5,000.0,038.0,031.3,18.7,0000.0,0006.39,0003.49,0003.15
2023-07-24 12:34:00,SystemResetWarning,0835.3,5.00,000.00,029.7,027.9,000.0,038.0,031.3,18.8,0000.0,0006.41,0003.47,0003.14
2023-07-24 12:35:00,SystemResetWarning,0835.3,4.99,000.00,029.6,026.2,000.0,037.9,031.0,18.7,0000.0,0006.45,0003.48,0003.15
2023-07-24 12:36:00,SystemResetWarning,0835.3,5.01,000.00,029.5,025.7,000.0,037.8,030.9,18.7,0000.0,0006.48,0003.49,0003.15
2023-07-24 12:37:00,SystemResetWarning,0835.3,5.00,000.00,029.4,025.9,000.0,037.8,030.7,18.8,0000.0,0006.43,0003.49,0003.15
2023-07-24 12:38:00,SystemResetWarning,0835.3,4.99,000.00,029.4,026.3,000.0,037.9,030.7,18.7,0000.0,0006.58,0003.49,0003.14
2023-07-24 12:39:00,SystemResetWarning,0835.3,5.00,000.00,029.4,026.7,000.0,037.9,030.8,19.0,0000.0,0007.05,0003.48,0003.14
2023-07-24 12:40:00,SystemResetWarning,0835.3,5.01,000.00,029.4,027.0,000.0,037.9,030.9,19.1,0000.0,0006.79,0003.45,0003.15
2023-07-24 12:41:00,SystemResetWarning,0835.3,5.01,000.00,029.4,027.2,000.0,037.9,030.9,19.3,0000.0,0006.82,0003.46,0003.15
2023-07-24 12:42:00,SystemResetWarning,0835.2,5.00,000.00,029.4,027.5,000.0,037.9,031.0,20.8,0000.0,0006.62,0003.44,0003.15
2023-07-24 12:43:00,SystemResetWarning,0835.3,4.99,000.00,029.4,027.7,000.0,037.9,031.0,20.4,0000.0,0006.04,0003.41,0003.15
2023-07-24 12:44:00,SystemResetWarning,0835.2,4.99,000.00,029.4,027.8,000.0,037.9,031.0,19.3,0000.0,0006.01,0003.41,0003.14
2023-07-24 12:45:00,SystemResetWarning,0835.3,5.00,000.00,029.5,028.0,000.0,037.9,031.1,19.2,0000.0,0005.69,0003.42,0003.14
2023-07-24 12:46:00,SystemResetWarning,0835.4,5.00,000.00,029.5,028.1,000.0,037.9,031.1,22.2,0000.0,0005.69,0003.43,0003.14
2023-07-24 12:47:00,SystemResetWarning,0835.3,5.01,000.00,029.5,028.2,000.0,038.0,031.2,22.0,0000.0,0005.71,0003.43,0003.13
2023-07-24 12:48:00,SystemResetWarning,0835.4,5.01,000.00,029.6,028.3,000.0,038.0,031.2,22.0,0000.0,0005.84,0003.43,0003.13
2023-07-24 12:49:00,SystemResetWarning,0835.3,5.00,000.00,029.6,028.4,000.0,038.0,031.3,19.9,0000.0,0005.81,0003.44,0003.14
2023-07-24 12:50:00,SystemResetWarning,0835.3,4.99,000.00,029.6,028.4,000.0,038.0,031.3,20.3,0000.0,0005.35,0003.46,0003.14
2023-07-24 12:51:00,SystemResetWarning,0835.4,4.98,000.00,029.6,027.2,000.0,037.9,031.2,20.4,0000.0,0005.46,0003.48,0003.13
2023-07-24 12:52:00,SystemResetWarning,0835.4,5.01,000.00,029.6,026.0,000.0,037.8,031.0,20.5,0000.0,0005.57,0003.47,0003.12
2023-07-24 12:53:00,SystemResetWarning,0835.4,5.01,000.00,029.5,026.1,000.0,037.8,030.9,20.0,0000.0,0005.75,0003.48,0003.13
2023-07-24 12:54:00,SystemResetWarning,0835.5,5.00,000.00,029.4,026.4,000.0,037.8,030.8,20.8,0000.0,0005.69,0003.48,0003.13
2023-07-24 12:55:00,SystemResetWarning,0835.5,5.00,000.00,029.4,026.7,000.0,037.9,030.8,21.3,0000.0,0005.72,0003.49,0003.14
2023-07-24 12:56:00,SystemResetWarning,0835.5,5.01,000.00,029.4,027.0,000.0,037.9,030.9,21.7,0000.0,0005.73,0003.49,0003.15
2023-07-24 12:57:00,SystemResetWarning,0835.5,5.00,000.00,029.4,027.3,000.0,037.9,031.0,22.2,0000.0,0005.80,0003.49,0003.16
2023-07-24 12:58:00,SystemResetWarning,0835.5,4.99,000.00,029.4,027.6,000.0,037.9,031.0,21.4,0000.0,0005.96,0003.50,0003.17
2023-07-24 12:59:00,SystemResetWarning,0835.5,5.00,000.00,029.5,027.8,000.0,037.9,031.1,20.6,0000.0,0006.16,0003.54,0003.18
